Flag for U.S.A. Weather past 2 weeks in Springfield, Missouri, U.S.A.

Now
77 °F

Scattered clouds.


Feels Like: 79 °F
Forecast: 63 / 76 °F
Wind: 9 mph from South

Location: Springfield Regional Airport

Current Time: Jul 31, 2014 at 6:40:46 PM

Latest Report: Jul 31, 2014 at 5:52 PM


Visibility: 10 mi

Pressure: 30.02 "Hg

Humidity: 64%

Dew point: 64 °F

Location of SpringfieldLocation

Historic Weather in Springfield — Graph

°F

Springfield temperature yesterday

Maximum temperature yesterday: 73 °F (at 9:52 AM)
Minimum temperature yesterday: 67 °F (at 7:52 PM)
Average temperature yesterday: 70 °F

Past Weeks' High & Low Weather Summary

 TemperatureHumidityPressure
High96 °F (Jul 26, 1:52 PM)94% (Jul 21, 4:52 AM)30.17 "Hg (Jul 21, 4:52 AM)
Low57 °F (Jul 19, 4:52 AM)30% (Jul 27, 2:52 PM)29.85 "Hg (Jul 26, 5:52 PM)
Average74 °F68%30.03 "Hg
* Reported Jul 16 4:52 PM — Jul 31 4:52 PM, Springfield, Weather by CustomWeather, © 2014

Note: Actual official high and low records may vary slightly from our data, if they occured in-between our weather recording intervals... More about our weather records

Advertising

Springfield weather history for previous 24 hours

 ConditionsComfort  
Time TempWeatherWind HumidityBarometerVisibility
4:52 PM
Jul 31
80 °FPassing clouds.10 mph54%30.03 "Hg10 mi
3:52 PM79 °FPassing clouds.7 mph54%30.04 "Hg10 mi
2:52 PM78 °FSunny.5 mph58%30.05 "Hg10 mi
1:52 PM78 °FMostly cloudy.No wind54%30.06 "Hg10 mi
12:52 PM76 °FOvercast.6 mph58%30.08 "Hg10 mi
11:52 AM76 °FBroken clouds.6 mph60%30.07 "Hg10 mi
10:52 AM73 °FScattered clouds.No wind66%30.08 "Hg10 mi
9:52 AM73 °FSunny.3 mph71%30.08 "Hg10 mi
8:52 AM69 °FSunny.3 mph84%30.08 "Hg8 mi
7:52 AM67 °FFog.5 mph90%30.08 "Hg6 mi
6:52 AM66 °FFog.3 mph93%30.07 "Hg4 mi
5:52 AM67 °FFog.3 mph90%30.07 "Hg6 mi
4:52 AM68 °FLow clouds.No wind90%30.07 "Hg7 mi
3:52 AM67 °FLow clouds.No wind93%30.06 "Hg7 mi
2:52 AM67 °FMostly cloudy.3 mph90%30.06 "Hg8 mi
1:52 AM66 °FMostly cloudy.5 mph93%30.07 "Hg8 mi
12:52 AM67 °FOvercast.5 mph93%30.07 "Hg7 mi
11:52 PM
Jul 30
67 °FOvercast.No wind93%30.07 "Hg8 mi
10:52 PM67 °FPassing clouds.3 mph90%30.06 "Hg9 mi
9:52 PM67 °FPassing clouds.5 mph93%30.06 "Hg10 mi
8:52 PM67 °FLight rain. Partly sunny.3 mph93%30.05 "Hg10 mi
7:52 PM67 °FLight rain. Partly sunny.5 mph93%30.06 "Hg9 mi
6:52 PM68 °FLight rain. Overcast.5 mph90%30.06 "Hg10 mi
Weather by CustomWeather, © 2014

See weather overviewHow to use our weather pages